This is the latest recevied weather packets stored in our database for station/object HG5CJW-10. If no packets are shown the sender has not sent any weather packets the latest 10 day(s).
| Time | Temp. | Humidity | Pressure | Rain* | Wind** | Luminosity | Snow |
|---|---|---|---|---|---|---|---|
| 1777701065 | 10° C | 51% | 1043 hPa | - | - | - | - |
| 1777700165 | 10° C | 51% | 1043 hPa | - | - | - | - |
| 1777699265 | 10° C | 51% | 1043 hPa | - | - | - | - |
| 1777698365 | 10° C | 51% | 1042.9 hPa | - | - | - | - |
| 1777697465 | 10° C | 50% | 1042.3 hPa | - | - | - | - |
| 1777696589 | 10° C | 51% | 1042.5 hPa | - | - | - | - |
| 1777695664 | 10° C | 50% | 1042.9 hPa | - | - | - | - |
| 1777692060 | 10.56° C | 50% | 1042.5 hPa | - | - | - | - |
| 1777690259 | 10.56° C | 50% | 1042.6 hPa | - | - | - | - |
| 1777688459 | 10.56° C | 50% | 1042.7 hPa | - | - | - | - |
| 1777686660 | 10.56° C | 49% | 1042.6 hPa | - | - | - | - |
| 1777683058 | 11.11° C | 49% | 1042.8 hPa | - | - | - | - |
| 1777682158 | 11.11° C | 49% | 1042.9 hPa | - | - | - | - |
| 1777681258 | 11.11° C | 49% | 1042.7 hPa | - | - | - | - |
| 1777680353 | 11.11° C | 48% | 1043.1 hPa | - | - | - | - |
| 1777679453 | 11.67° C | 48% | 1043.2 hPa | - | - | - | - |
| 1777678553 | 11.67° C | 48% | 1043.2 hPa | - | - | - | - |
| 1777677652 | 11.67° C | 48% | 1043.2 hPa | - | - | - | - |
| 1777676753 | 11.67° C | 48% | 1043.2 hPa | - | - | - | - |
| 1777675852 | 12.22° C | 47% | 1043.4 hPa | - | - | - | - |
| 1777674952 | 12.22° C | 47% | 1043.4 hPa | - | - | - | - |
| 1777674053 | 12.22° C | 47% | 1043.3 hPa | - | - | - | - |
| 1777673152 | 12.78° C | 47% | 1043.3 hPa | - | - | - | - |
| 1777672252 | 12.22° C | 46% | 1042.5 hPa | - | - | - | - |
| 1777671352 | 12.78° C | 46% | 1042.5 hPa | - | - | - | - |
* Rain since midnight (hover to see other rain measurements)
** Current wind speed in m/s (hover to see current wind gust speed)